This is the latest recevied weather packets stored in our database for station/object K7FRY. If no packets are shown the sender has not sent any weather packets the latest 10 day(s).
| Time | Temp. | Humidity | Pressure | Rain* | Wind** | Luminosity | Snow |
|---|---|---|---|---|---|---|---|
| 1777482310 | 26.11° C | 20% | 1017.7 hPa | 0 mm | - | 593 W/m² | - |
| 1777482007 | 25.56° C | 20% | 1017.9 hPa | 0 mm | - | 711 W/m² | - |
| 1777481705 | 26.11° C | 18% | 1017.8 hPa | 0 mm | - | 664 W/m² | - |
| 1777481402 | 25.56° C | 19% | 1017.8 hPa | 0 mm | - | 586 W/m² | - |
| 1777481098 | 25° C | 20% | 1017.8 hPa | 0 mm | - | 778 W/m² | - |
| 1777480795 | 25° C | 20% | 1017.7 hPa | 0 mm | - | 669 W/m² | - |
| 1777480491 | 25.56° C | 20% | 1017.6 hPa | 0 mm | - | 741 W/m² | - |
| 1777480188 | 24.44° C | 20% | 1017.7 hPa | 0 mm | - | 607 W/m² | - |
| 1777479884 | 25° C | 20% | 1017.8 hPa | 0 mm | - | 829 W/m² | - |
| 1777479581 | 24.44° C | 21% | 1017.8 hPa | 0 mm | - | 845 W/m² | - |
| 1777479279 | 23.89° C | 20% | 1017.7 hPa | 0 mm | - | 665 W/m² | - |
| 1777478975 | 23.89° C | 21% | 1018 hPa | 0 mm | - | 690 W/m² | - |
| 1777478672 | 22.78° C | 21% | 1017.8 hPa | 0 mm | - | 701 W/m² | - |
| 1777478368 | 22.78° C | 22% | 1018 hPa | 0 mm | - | 432 W/m² | - |
| 1777478065 | 21.67° C | 22% | 1017.9 hPa | 0 mm | - | 559 W/m² | - |
| 1777477761 | 21.67° C | 22% | 1017.9 hPa | 0 mm | - | 535 W/m² | - |
| 1777477457 | 21.67° C | 23% | 1017.7 hPa | 0 mm | - | 313 W/m² | - |
| 1777477154 | 21.67° C | 22% | 1018.1 hPa | 0 mm | - | 271 W/m² | - |
| 1777476850 | 22.22° C | 22% | 1018.1 hPa | 0 mm | - | 482 W/m² | - |
| 1777476549 | 22.22° C | 22% | 1018.1 hPa | 0 mm | - | 473 W/m² | - |
| 1777476245 | 21.67° C | 22% | 1018.1 hPa | 0 mm | - | 413 W/m² | - |
| 1777475940 | 21.11° C | 22% | 1018.1 hPa | 0 mm | - | 371 W/m² | - |
| 1777475636 | 21.11° C | 22% | 1018.5 hPa | 0 mm | - | 365 W/m² | - |
| 1777475332 | 20.56° C | 23% | 1018.4 hPa | 0 mm | - | 374 W/m² | - |
| 1777475027 | 20.56° C | 23% | 1018.2 hPa | 0 mm | - | 335 W/m² | - |
* Rain latest hour (hover to see other rain measurements)
** Current wind speed in m/s (hover to see current wind gust speed)